Tracking 29747 objects as of 10-Oct-2024
HD Live streaming from Space Station
objects crossing your sky now

DELTA 1 DEB

Track DELTA 1 DEB now!
10-day predictions


NORAD ID: 10823
Int'l Code: 1976-077BT
Perigee: 1,462.3 km
Apogee: 1,533.8 km
Inclination: 101.9 °
Period: 115.8 minutes
Semi major axis: 7869 km
RCS: 0.1533 m2 (medium)
Launch date: July 29, 1976
Source: United States (US)
Launch site: AIR FORCE WESTERN TEST RANGE (AFWTR)

Note: This is SATELLITE DEBRIS
Your satellite tracking list
Your tracking list is empty




NASA's NSSDC Master Catalog

Two Line Element Set (TLE):
1 10823U 76077BT  24283.36991088  .00000070  00000-0  81203-3 0  9998
2 10823 101.9053 233.7531 0045410 102.0678  49.7639 12.43714128186722
Source of the keplerian elements: AFSPC